1341446428723,2.86273
1341446488723,2.81735
1341446548723,2.81005
1341446608723,2.81746
1341446668723,2.80543
1341446728723,2.81554
1341446788723,2.85481
1341446848723,2.80371
1341446908723,2.82258
1341446968723,2.79805
1341447028723,2.80893
1341447088723,2.81814
1341447148723,2.80952
1341447208723,2.81036
1341447268723,2.80308
1341447328723,2.86782
1341447388723,2.78474
1341447448723,2.80517
1341447508723,2.76736
1341447568723,2.79725
1341447628723,2.79865
1341447688723,2.78265
1341447748723,2.78510
1341447808723,2.81529
1341447868723,2.79173
1341447928723,2.77997
1341447988723,2.77928
1341448048723,2.77824
1341448108723,2.77948
1341448168723,2.78555
1341448228723,2.77364
1341448288723,2.79135
1341448348723,2.78020
1341448408723,2.77648
1341448468723,2.78367
1341448528723,2.81650
1341448588723,2.81497
1341448648723,2.83061
1341448708723,2.83535
1341448768723,2.84689
1341448828723,2.83370
1341448888723,2.81288
1341448948723,2.83695
1341449008723,2.82900
1341449068723,2.82501
1341449128723,2.83526
1341449188723,2.85184
1341449248723,2.81847
1341449308723,2.82028
1341449368723,2.83830
1341449428723,2.79793
1341449488723,2.81796
1341449548723,2.82172
1341449608723,2.81796
1341449668723,2.80604
1341449728723,2.81456
1341449788723,2.81520
1341449848723,2.80930
1341449908723,2.80155
1341449968723,2.78826
1341450028733,2.80454
1341450088733,2.83206
1341450148733,2.81889
1341450208733,2.83718
1341450268733,2.82858
1341450328733,2.83448
1341450388733,2.83913
1341450448733,2.82731
1341450508733,2.87409
1341450568733,2.85422
1341450628733,2.84794
1341450688733,2.86186
1341450748733,2.84564
1341450808733,2.88665
1341450868733,2.86271
1341450928733,2.90608
1341450988733,2.89734
1341451048733,2.86212
1341451108733,2.87919
1341451168733,2.84115
1341451228733,2.85809
1341451288733,2.86023
1341451348733,2.83670
1341451408733,2.86878
1341451468733,2.86590
1341451528733,2.84423
1341451588733,2.81193
1341451648733,2.80499
1341451708733,2.81943
1341451768733,2.85048
1341451828733,2.82771
1341451888733,2.80233
1341451948733,2.79692
1341452008733,2.79603
1341452068733,2.81028
1341452128733,2.79824
1341452188733,2.82610
1341452248733,2.80173
1341452308733,2.81169
1341452368733,2.82300
1341452428733,2.85405
1341452488733,2.83776
1341452548733,2.81218
1341452608733,2.80364
1341452668733,2.82709
1341452728733,2.81606
1341452788733,2.80920
1341452848733,2.80952
1341452908733,2.79547
1341452968733,2.80352
1341453028733,2.80282
1341453088733,2.77191
1341453148733,2.80497
1341453208733,2.80317
1341453268733,2.79892
1341453328733,2.80617
1341453388733,2.80746
1341453448733,2.76951
1341453508733,2.77895
1341453568733,2.78970
1341453628743,2.80135
1341453688743,2.78710
1341453748743,2.78535
1341453808743,2.78873
1341453868743,2.80341
1341453928743,2.79731
1341453988743,2.80721
1341454048743,2.79852
1341454108743,2.79201
1341454168743,2.80275
1341454228743,2.77540
1341454288743,2.77706
1341454348743,2.78802
1341454408743,2.76139
1341454468743,2.79661
1341454528743,2.76763
1341454588743,2.78862
1341454648743,2.78846
1341454708743,2.76413
1341454768743,2.77597
1341454828743,2.71768
1341454888743,2.75672
1341454948743,2.77253
1341455008743,2.80491
1341455068743,2.77898
1341455128743,2.77457
1341455188743,2.80324
1341455248743,2.81244
1341455308743,2.81840
1341455368743,2.81413
1341455428743,2.80493
1341455488743,2.81713
1341455548743,2.79943
1341455608743,2.79257
1341455668743,2.80562
1341455728743,2.78594
1341455788743,2.79663
1341455848743,2.78962
1341455908743,2.79860
1341455968743,2.80060
1341456028743,2.83781
1341456088743,2.86544
1341456148743,2.84619
1341456208743,2.87348
1341456268743,2.88774
1341456328743,2.90393
1341456388743,2.89923
1341456448743,2.90386
1341456508743,2.87895
1341456568743,2.86735
1341456628743,2.86346
1341456688743,2.84494
1341456748743,2.83136
1341456808743,2.82613
1341456868743,2.82292
1341456928743,2.83909
1341456988743,2.85101
1341457048743,2.79290
1341457108743,2.81065
1341457168743,2.79755
1341457228753,2.79538
1341457288753,2.80170
1341457348753,2.78433
1341457408753,2.77949
1341457468753,2.80977
1341457528753,2.79624
1341457588753,2.79502
1341457648753,2.79770
1341457708753,2.81077
1341457768753,2.79815
1341457828753,2.81816
1341457888753,2.80391
1341457948753,2.79227
1341458008753,2.81208
1341458068753,2.81144
1341458128753,2.79928
1341458188753,2.83885
1341458248753,2.81141
1341458308753,2.82471
1341458368753,2.83875
1341458428753,2.81706
1341458488753,2.81413
1341458548753,2.82398
1341458608753,2.85311
1341458668753,2.82350
1341458728753,2.79686
1341458788753,2.84070
1341458848753,2.84100
1341458908753,2.87323
1341458968753,2.85811
1341459028753,2.85540
1341459088753,2.86580
1341459148753,2.85540
1341459208753,2.89665
1341459268753,2.86089
1341459328753,2.93676
1341459388753,2.93088
1341459448753,2.96767
1341459508753,2.95049
1341459568753,2.95083
1341459628753,2.88369
1341459688753,2.86198
1341459748753,2.87229
1341459808753,2.86022
1341459868753,2.85989
1341459928753,2.85364
1341459988753,2.88061
1341460048753,2.89441
1341460108753,2.86732
1341460168753,2.88470
1341460228753,2.86598
1341460288753,2.82753
1341460348753,2.85541
1341460408753,2.83814
1341460468753,2.85459
1341460528753,2.84874
1341460588753,2.85954
1341460648753,2.85364
1341460708753,2.87282
1341460768753,2.85791
1341460828762,2.83299
1341460888762,2.85182
1341460948762,2.85274
1341461008762,2.85576
1341461068762,2.87994
1341461128762,2.86132
1341461188762,2.84258
1341461248762,2.87672
1341461308762,2.88083
1341461368762,2.87264
1341461428762,2.88381
1341461488762,2.88104
1341461548762,2.88478
1341461608762,2.89623
1341461668762,2.87934
1341461728762,2.90327
1341461788762,2.90591
1341461848762,2.92402
1341461908762,2.86448
1341461968762,2.88186
1341462028762,2.88186
1341462088762,2.88271
1341462148762,2.90920
1341462208762,2.88611
1341462268762,2.87093
1341462328762,2.88841
1341462388762,2.90113
1341462448762,2.87886
1341462508762,2.87046
1341462568762,2.90050
1341462628762,2.91305
1341462688762,2.91624
1341462748762,2.92760
1341462808762,2.91885
1341462868762,2.91045
1341462928762,2.88332
1341462988762,2.89134
1341463048762,2.91775
1341463108762,2.92065
1341463168762,2.91764
1341463228762,2.94837
1341463288762,2.91883
1341463348762,2.93584
1341463408762,2.92815
1341463468762,2.96033
1341463528762,2.98055
1341463588762,2.97201
1341463648762,2.95506
1341463708762,2.99334
1341463768762,3.00278
1341463828762,2.97679
1341463888762,2.95319
1341463948762,2.96257
1341464008762,2.93856
1341464068762,2.93719
1341464128762,2.93775
1341464188762,2.91672
1341464248762,2.93697
1341464308762,2.92887
1341464368762,2.88589
1341464428772,2.88909
1341464488772,2.89184
1341464548772,2.86315
1341464608772,2.88571
1341464668772,2.86351
1341464728772,2.87912
1341464788772,2.88337
1341464848772,2.85395
1341464908772,2.87078
1341464968772,2.88463
1341465028772,2.86070
1341465088772,2.89560
1341465148772,2.87535
1341465208772,2.87099
1341465268772,2.86997
1341465328772,2.85118
1341465388772,2.86455
1341465448772,2.86900
1341465508772,2.85132
1341465568772,2.84943
1341465628772,2.86946
1341465688772,2.84291
1341465748772,2.85908
1341465808772,2.85375
1341465868772,2.85824
1341465928772,2.86394
1341465988772,2.87289
1341466048772,2.85520
1341466108772,2.85315
1341466168772,2.85150
1341466228772,2.87517
1341466288772,2.84610
1341466348772,2.83196
1341466408772,2.84749
1341466468772,2.86839
1341466528772,2.85638
1341466588772,2.85018
1341466648772,2.85976
1341466708772,2.86799
1341466768772,2.88310
1341466828772,2.84473
1341466888772,2.87386
1341466948772,2.85590
1341467008772,2.88556
1341467068772,2.87715
1341467128772,2.87653
1341467188772,2.86650
1341467248772,2.87763
1341467308772,2.85881
1341467368772,2.86638
1341467428772,2.87523
1341467488772,2.88220
1341467548772,2.88746
1341467608772,2.87607
1341467668772,2.88511
1341467728772,2.87990
1341467788772,2.89321
1341467848772,2.87311
1341467908772,2.90467
1341467968772,2.86524
1341468028781,2.88118
1341468088781,2.89027
1341468148781,2.88790
1341468208781,2.87344
1341468268781,2.88994
1341468328781,2.86075
1341468388781,2.86689
1341468448781,2.87296
1341468508781,2.86699
1341468568781,2.84929
1341468628781,2.84915
1341468688781,2.84672
1341468748781,2.84275
1341468808781,2.83713
1341468868781,2.85511
1341468928781,2.86324
1341468988781,2.84681
1341469048781,2.85293
1341469108781,2.85667
1341469168781,2.85282
1341469228781,2.83311
1341469288781,2.84594
1341469348781,2.85743
1341469408781,2.84647
1341469468781,2.82920
1341469528781,2.81700
1341469588781,2.84065
1341469648781,2.81624
1341469708781,2.81923
1341469768781,2.84008
1341469828781,2.81649
1341469888781,2.84292
1341469948781,2.83603
1341470008781,2.84642
1341470068781,2.83690
1341470128781,2.81397
1341470188781,2.51508
1341470248781,2.82255
1341470308781,2.82911
1341470368781,2.84582
1341470428781,2.82917
1341470488781,2.81043
1341470548781,2.80421
1341470608781,2.80200
1341470668781,2.81471
1341470728781,2.79746
1341470788781,2.82690
1341470848781,2.81197
1341470908781,2.83154
1341470968781,2.82190
1341471028781,2.81149
1341471088781,2.82378
1341471148781,2.84710
1341471208781,2.82614
1341471268781,2.84691
1341471328781,2.85893
1341471388781,2.84677
1341471448781,2.89572
1341471508781,2.84688
1341471568781,2.84432
1341471628791,2.85342
1341471688791,2.85279
1341471748791,2.85552
1341471808791,2.84862
1341471868791,2.82796
1341471928791,2.84012
1341471988790,2.85567
1341472048790,2.85546
1341472108790,2.82331
1341472168790,2.83578
1341472228790,2.82855
1341472288790,2.84786
1341472348790,2.81172
1341472408790,2.83877
1341472468791,2.79999
1341472528791,2.79940
1341472588791,2.82835
1341472648790,2.80781
1341472708790,2.80847
1341472768791,2.78582
1341472828791,2.78365
1341472888791,2.81506
1341472948791,2.81160
1341473008791,2.78941
1341473068791,2.79209
1341473128791,2.81757
1341473188791,2.81845
1341473248791,2.79601
1341473308790,2.80638
1341473368790,2.79124
1341473428790,2.81582
1341473488790,2.79214
1341473548790,2.79621
1341473608790,2.75830
1341473668790,2.78270
1341473728790,2.77811
1341473788791,2.81053
1341473848791,2.78092
1341473908791,2.78490
1341473968791,2.80065
1341474028790,2.78336
1341474088790,2.79391
1341474148791,2.79757
1341474208791,2.80106
1341474268791,2.81822
1341474328791,2.81011
1341474388791,2.82378
1341474448791,2.87199
1341474508791,2.88142
1341474568791,2.85833
1341474628791,2.80077
1341474688790,2.81224
1341474748790,2.82550
1341474808790,2.81682
1341474868790,2.81313
1341474928790,2.78995
1341474988790,2.80221
1341475048790,2.80573
1341475108790,2.81227
1341475168791,2.81870
1341475228800,2.79010
1341475288800,2.78064
1341475348800,2.78243
1341475408800,2.80280
1341475468800,2.82625
1341475528800,2.78403
1341475588800,2.80824
1341475648800,2.80286
1341475708800,2.81972
1341475768800,2.80948
1341475828800,2.80211
1341475888800,2.75873
1341475948800,2.79910
1341476008800,2.78902
1341476068800,2.80534
1341476128800,2.80636
1341476188800,2.78216
1341476248800,2.80543
1341476308800,2.78605
1341476368800,2.78898
1341476428800,2.79380
1341476488800,2.79929
1341476548800,2.76835
1341476608800,2.76080
1341476668800,2.78677
1341476728800,2.80721
1341476788800,2.76837
1341476848800,2.76101
1341476908800,2.78616
1341476968800,2.77981
1341477028800,2.77403
1341477088800,2.78010
1341477148800,2.79308
1341477208800,2.78582
1341477268800,2.76547
1341477328800,2.78587
1341477388800,2.79204
1341477448800,2.77835
1341477508800,2.79463
1341477568800,2.78497
1341477628800,2.78529
1341477688800,2.76463
1341477748800,2.78822
1341477808800,2.82481
1341477868800,2.77977
1341477928800,2.78228
1341477988800,2.79037
1341478048800,2.77542
1341478108800,2.76194
1341478168800,2.76665
1341478228800,2.78985
1341478288800,2.77552
1341478348800,2.77030
1341478408800,2.77814
1341478468800,2.78245
1341478528800,2.79932
1341478588800,2.77909
1341478648800,2.78342
1341478708800,2.78268
1341478768800,2.77105
1341478828809,2.77763
1341478888809,2.78415
1341478948809,2.77160
1341479008809,2.80524
1341479068809,2.76716
1341479128809,2.75483
1341479188809,2.77472
1341479248809,2.75185
1341479308809,2.76596
1341479368809,2.78897
1341479428809,2.77208
1341479488809,2.79223
1341479548809,2.77822
1341479608809,2.76897
1341479668809,2.77458
1341479728809,2.73065
1341479788809,2.76502
1341479848809,2.77045
1341479908809,2.73042
1341479968809,2.74535
1341480028809,2.75150
1341480088809,2.76357
1341480148809,2.76386
1341480208809,2.77936
1341480268809,2.76326
1341480328809,2.79437
1341480388809,2.76589
1341480448809,2.77906
1341480508809,2.76455
1341480568809,2.78743
1341480628809,2.76763
1341480688809,2.76736
1341480748809,2.75130
1341480808809,2.79754
1341480868809,2.76131
1341480928809,2.77414
1341480988809,2.75799
1341481048809,2.75925
1341481108809,2.75926
1341481168809,2.75600
1341481228809,2.77386
1341481288809,2.75051
1341481348809,2.79590
1341481408809,2.84748
1341481468809,2.76458
1341481528809,3.07747
1341481588809,2.75851
1341481648809,2.77290
1341481708809,2.81162
1341481768809,2.76493
1341481828809,2.79687
1341481888809,2.76266
1341481948809,2.75306
1341482008809,2.77505
1341482068809,2.77375
1341482128809,2.76676
1341482188809,2.75145
1341482248809,2.77155
1341482308809,2.79653
1341482368809,2.74982
1341482428818,2.78561
1341482488818,2.80872
1341482548818,2.77672
1341482608818,2.75924
1341482668818,2.76016
1341482728818,2.78406
1341482788818,2.76881
1341482848818,2.77538
1341482908818,2.79260
1341482968818,2.77063
1341483028818,2.78219
1341483088818,2.78355
1341483148818,2.78479
1341483208818,2.79091
1341483268818,2.78356
1341483328818,2.89687
1341483388818,2.77013
1341483448818,2.77907
1341483508818,2.80184
1341483568818,2.78296
1341483628818,2.81128
1341483688818,2.81111
1341483748818,2.80042
1341483808818,2.80308
1341483868818,2.81692
1341483928818,2.78591
1341483988818,2.82705
1341484048818,2.81539
1341484108818,2.80945
1341484168818,2.79641
1341484228818,2.82269
1341484288818,2.80854
1341484348818,2.82258
1341484408818,2.79506
1341484468818,2.79153
1341484528818,2.80931
1341484588818,2.80280
1341484648818,2.89590
1341484708818,2.84245
1341484768818,2.84069
1341484828818,2.84282
1341484888818,2.82466
1341484948818,2.84528
1341485008818,2.85489
1341485068818,2.85798
1341485128818,2.83376
1341485188818,2.88417
1341485248818,2.86301
1341485308818,2.87006
1341485368818,2.89317
1341485428818,2.89312
1341485488818,2.88136
1341485548818,2.88075
1341485608818,2.85590
1341485668818,2.87667
1341485728818,2.86328
1341485788818,2.89444
1341485848818,2.87675
1341485908818,2.87467
1341485968818,2.89478
1341486028827,2.88363
1341486088827,2.89990
1341486148827,2.86342
1341486208827,2.88799
1341486268827,2.85793
1341486328827,2.89131
1341486388827,2.89735
1341486448827,2.88408
1341486508827,2.86071
1341486568827,2.86628
1341486628827,2.87132
1341486688827,2.84603
1341486748827,2.88493
1341486808827,2.84987
1341486868827,2.84668
1341486928827,2.86029
1341486988827,2.88680
1341487048827,2.89215
1341487108827,2.86656
1341487168827,2.87121
1341487228827,2.87475
1341487288827,2.88873
1341487348827,2.85183
1341487408827,2.89629
1341487468827,2.88108
1341487528827,2.87273
1341487588827,2.85258
1341487648827,2.85245
1341487708827,2.84666
1341487768827,2.86739
1341487828827,2.87267
1341487888827,2.84959
1341487948827,2.86205
1341488008827,2.91413
1341488068827,2.85513
1341488128827,2.86809
1341488188827,2.89888
1341488248827,2.83291
1341488308827,2.88579
1341488368827,2.89912
1341488428827,2.87453
1341488488827,2.87127
1341488548827,2.91849
1341488608827,3.03528
1341488668827,3.10002
1341488728827,3.12317
1341488788827,3.16938
1341488848827,3.16399
1341488908827,3.10544
1341488968827,3.13638
1341489028827,3.11452
1341489088827,2.99103
1341489148827,2.95443
1341489208827,2.93934
1341489268827,2.92038
1341489328827,2.91991
1341489388827,2.93537
1341489448827,2.90569
1341489508827,2.87588
1341489568827,2.90657
1341489628836,2.92311
1341489688836,2.90736
1341489748836,2.88478
1341489808836,2.84600
1341489868836,2.86003
1341489928836,2.87826
1341489988836,2.88287
1341490048836,2.91171
1341490108836,2.91446
1341490168836,2.89193
1341490228836,2.89471
1341490288836,2.92255
1341490348836,2.90752
1341490408836,2.88189
1341490468836,2.90261
1341490528836,2.87749
1341490588836,2.87989
1341490648836,2.88849
1341490708836,2.87588
1341490768836,2.88524
1341490828836,2.87378
1341490888836,2.88727
1341490948836,2.89437
1341491008836,2.88575
1341491068836,2.89180
1341491128836,2.92245
1341491188836,2.94178
1341491248836,2.92675
1341491308836,2.89296
1341491368836,2.90296
1341491428836,2.91962
1341491488836,2.90998
1341491548836,2.92233
1341491608836,2.89789
1341491668836,2.91629
1341491728836,2.89523
1341491788836,2.87578
1341491848836,2.89457
1341491908836,2.88165
1341491968836,2.92236
1341492028836,2.92351
1341492088836,2.90361
1341492148836,2.86365
1341492208836,2.90212
1341492268836,2.92352
1341492328836,2.92128
1341492388836,2.90554
1341492448836,2.87123
1341492508836,2.90780
1341492568836,2.87575
1341492628836,2.90054
1341492688836,2.92948
1341492748836,2.88881
1341492808836,2.90030
1341492868836,2.89143
1341492928836,2.90496
1341492988836,2.88354
1341493048836,2.91248
1341493108836,2.92810
1341493168836,2.91715
1341493228845,2.91416
1341493288845,2.91230
1341493348845,2.92011
1341493408845,2.96365
1341493468845,2.90708
1341493528845,2.92758
1341493588845,2.95173
1341493648845,3.00119
1341493708845,2.98145
1341493768845,2.98552
1341493828845,3.00382
1341493888845,2.96767
1341493948845,2.95964
1341494008845,2.95557
1341494068845,3.01920
1341494128845,3.04372
1341494188845,2.97770
1341494248845,3.02127
1341494308845,2.99575
1341494368845,3.02853
1341494428845,2.99907
1341494488845,3.00571
1341494548845,3.01913
1341494608845,3.02830
1341494668845,3.04541
1341494728845,3.03455
1341494788845,3.09378
1341494848845,3.06087
1341494908845,3.13631
1341494968845,3.13283
1341495028845,3.13886
1341495088845,3.09492
1341495148845,3.12941
1341495208845,3.11154
1341495268845,3.10758
1341495328845,3.12252
1341495388845,3.09379
1341495448845,3.12098
1341495508845,3.10263
1341495568845,3.14272
1341495628845,3.07626
1341495688845,3.10719
1341495748845,3.12262
1341495808845,3.10636
1341495868845,3.10384
1341495928845,3.08776
1341495988845,3.07602
1341496048845,3.10431
1341496108845,3.09086
1341496168845,3.05787
1341496228845,3.09337
1341496288845,3.10419
1341496348845,3.11392
1341496408845,3.08444
1341496468845,3.14113
1341496528845,3.18589
1341496588845,3.15790
1341496648845,3.17069
1341496708845,3.15573
1341496768845,3.17622
1341496828855,3.10134
1341496888855,3.11203
1341496948855,3.10563
1341497008855,3.10109
1341497068855,3.07964
1341497128854,3.05036
1341497188854,3.04661
1341497248854,3.05862
1341497308855,3.04642
1341497368855,3.03688
1341497428855,3.04089
1341497488855,3.05101
1341497548855,3.02735
1341497608855,3.00261
1341497668855,3.00924
1341497728855,3.03082
1341497788855,3.01520
1341497848855,3.00821
1341497908855,3.04594
1341497968855,2.98941
1341498028855,3.00455
1341498088855,3.01568
1341498148855,2.96972
1341498208855,2.98052
1341498268855,3.02966
1341498328855,2.98234
1341498388855,2.92491
1341498448855,3.00582
1341498508854,3.00725
1341498568854,2.97383
1341498628855,2.97761
1341498688855,2.97481
1341498748855,2.98135
1341498808855,2.92480
1341498868855,2.92001
1341498928855,2.96665
1341498988855,2.96510
1341499048855,2.95439
1341499108855,2.97869
1341499168855,3.01463
1341499228855,2.90635
1341499288855,2.95529
1341499348855,2.93157
1341499408855,2.95010
1341499468855,2.94373
1341499528855,2.98138
1341499588855,2.95164
1341499648855,2.95752
1341499708855,2.94935
1341499768855,2.93295
1341499828854,2.96479
1341499888854,2.92910
1341499948854,2.90472
1341500008855,2.93860
1341500068855,2.93389
1341500128855,2.97085
1341500188855,2.93072
1341500248855,2.92275
1341500308855,2.92003
1341500368855,2.92297
1341500428864,2.90566
1341500488864,2.91090
1341500548864,2.91535
1341500608864,2.94203
1341500668864,2.94421
1341500728864,2.92846
1341500788864,2.92577
1341500848864,2.95497
1341500908864,2.90580
1341500968864,2.89231
1341501028864,2.88067
1341501088864,2.88554
1341501148864,2.87305
1341501208864,2.88465
1341501268864,2.88520
1341501328864,2.87219
1341501388864,2.89624
1341501448864,2.86207
1341501508864,2.88255
1341501568864,2.86884
1341501628864,2.86297
1341501688864,2.89129
1341501748864,2.88051
1341501808864,2.87921
1341501868864,2.86106
1341501928864,2.85839
1341501988864,2.87855
1341502048864,2.88636
1341502108864,2.87221
1341502168864,2.87501
1341502228864,2.86736
1341502288864,2.90743
1341502348864,2.87459
1341502408864,2.86844
1341502468864,2.86131
1341502528864,2.83867
1341502588864,2.87536
1341502708864,2.84421
1341502828864,2.86111
1341502888864,2.87181
1341502948864,2.85326
1341503008864,2.83887
1341503068864,2.82280
1341503128864,2.85786
1341503188864,2.83812
1341503248864,2.82554
1341503308864,2.87657
1341503368864,2.87415
1341503428864,2.82430
1341503488864,2.83521
1341503548864,2.82911
1341503608864,2.84224
1341503668864,2.85469
1341503728864,2.84155
1341503788864,2.81601
1341503848864,2.82469
1341503908864,2.81727
1341503968864,2.85600
1341504028874,2.83718
1341504088874,2.84874
1341504148874,2.85046
1341504208874,2.83159
1341504268874,2.80694
1341504328874,2.81108
1341504388874,2.84465
1341504448874,2.86149
1341504508874,2.83356
1341504568874,2.80977
1341504628874,2.87717
1341504688874,2.83153
1341504748874,2.79454
1341504808874,2.86812
1341504868874,2.81853
1341504928874,2.81132
1341504988874,2.84571
1341505048874,2.86268
1341505108874,2.81768
1341505168874,2.85385
1341505228874,2.86476
1341505288874,2.82866
1341505348874,2.68861
1341505408874,2.80860
1341505468874,2.84650
1341505528874,2.83794
1341505588874,2.83817
1341505648874,2.91289
1341505708874,2.80895
1341505768874,2.82591
1341505828874,2.84089
1341505888874,2.81790
1341505948874,2.80156
1341506008874,2.83976
1341506068874,2.79695
1341506128874,2.79994
1341506188874,2.80054
1341506248874,2.82663
1341506308874,2.81866
1341506368874,2.82792
1341506428874,2.84866
1341506488874,2.82406
1341506548874,2.83852
1341506608874,2.85426
1341506668874,2.82036
1341506728874,2.82191
1341506788874,2.76379
1341506848874,2.80373
1341506908874,2.79959
1341506968874,2.81814
1341507028874,2.78727
1341507088874,2.81488
1341507148874,2.78242
1341507208874,2.78546
1341507268874,2.81261
1341507328874,2.81691
1341507388874,2.80374
1341507448874,2.82786
1341507508874,2.81283
1341507568874,2.79121
1341507628884,2.84974
1341507688884,2.80613
1341507748884,2.83683
1341507808884,2.77829
1341507868884,2.84238
1341507928884,2.83691
1341507988884,2.80856
1341508048884,2.83000
1341508108884,2.80459
1341508168884,2.83086
1341508228884,2.80012
1341508288884,2.82327
1341508348884,2.81914
1341508408884,2.80938
1341508468884,2.81138
1341508528884,2.84502
1341508588884,2.80645
1341508648884,2.82601
1341508708884,2.80328
1341508768884,2.82418
1341508828884,2.81790
1341508888884,2.75398
1341508948884,2.79646
1341509008884,2.81986
1341509068884,2.85597
1341509128884,2.80079
1341509188884,2.82610
1341509248884,2.81641
1341509308884,2.82365
1341509368884,2.83056
1341509428884,2.85463
1341509488884,2.81446
1341509548884,2.84086
1341509608884,2.83390
1341509668884,2.85423
1341509728884,2.85804
1341509788884,2.82754
1341509848884,2.80563
1341509908884,2.82352
1341509968884,2.81954
1341510028884,2.80505
1341510088884,2.83535
1341510148884,2.80762
1341510208884,2.79312
1341510268884,2.85753
1341510328884,2.82754
1341510388884,2.81572
1341510448884,2.81819
1341510508884,2.82142
1341510568884,2.81669
1341510628884,2.83720
1341510688884,2.82350
1341510748884,2.83169
1341510808884,2.81118
1341510868884,2.88496
1341510928884,2.82692
1341510988884,2.85410
1341511048884,2.84113
1341511108884,2.85079
1341511168884,2.81159
1341511228894,2.82199
1341511288894,2.81987
1341511348894,2.85585
1341511408894,2.84371
1341511468894,2.82897
1341511528894,2.84882
1341511588894,2.86222
1341511648894,2.82678
1341511708894,2.81730
1341511768894,2.84649
1341511828894,2.83325
1341511888894,2.80247